RYR24UD EGSS-EIKN

Flight info

Callsign RYR24UD
Flight time 1h 8m
Altitude 38000
Route UTAVA Q75 BUZAD T420 TNT UL28 PENIL M144 BAGSO DCT OLAPO DCT EDONO EDONO1B
Aircraft B738/M-SDE3FGIJ1LRWY/SB1

Departure

Time 2026-04-26 10:58
Airport London Stansted Airport (EGSS)

Arrival

Time 2026-04-26 12:06
Airport Ireland West Airport Knock (EIKN)
Time Latitude Longitude Altitude Speed Heading
2026-04-26 10:23 51.89110 0.25576 351 ft 0 kts 42°
2026-04-26 10:48 51.89109 0.25574 351 ft 2 kts 42°
2026-04-26 10:49 51.89093 0.25550 361 ft 3 kts 42°
2026-04-26 10:49 51.89080 0.25531 359 ft 3 kts 20°
2026-04-26 10:49 51.89062 0.25531 353 ft 3 kts 325°
2026-04-26 10:49 51.89047 0.25554 351 ft 3 kts 313°
2026-04-26 10:50 51.89039 0.25567 351 ft 0 kts 313°
2026-04-26 10:52 51.89046 0.25557 361 ft 4 kts 312°
2026-04-26 10:52 51.89085 0.25487 357 ft 13 kts 313°
2026-04-26 10:52 51.89157 0.25365 357 ft 11 kts 313°
2026-04-26 10:53 51.89162 0.25259 352 ft 11 kts 230°
2026-04-26 10:53 51.89105 0.25171 351 ft 13 kts 223°
2026-04-26 10:53 51.89030 0.25059 356 ft 17 kts 223°
2026-04-26 10:54 51.88798 0.24709 354 ft 28 kts 223°
2026-04-26 10:54 51.88641 0.24475 350 ft 32 kts 222°
2026-04-26 10:54 51.88480 0.24233 352 ft 30 kts 222°
2026-04-26 10:54 51.88329 0.24006 348 ft 29 kts 223°
2026-04-26 10:55 51.88184 0.23789 336 ft 28 kts 223°
2026-04-26 10:55 51.88045 0.23581 340 ft 26 kts 223°
2026-04-26 10:55 51.87916 0.23386 340 ft 24 kts 223°
2026-04-26 10:55 51.87803 0.23218 340 ft 21 kts 223°
2026-04-26 10:56 51.87730 0.23096 336 ft 11 kts 247°
2026-04-26 10:56 51.87759 0.22992 339 ft 11 kts 310°
2026-04-26 10:56 51.87807 0.22903 338 ft 11 kts 313°
2026-04-26 10:56 51.87864 0.22802 331 ft 14 kts 311°
2026-04-26 10:57 51.87927 0.22692 331 ft 8 kts 313°
2026-04-26 10:57 51.87959 0.22669 332 ft 5 kts 34°
2026-04-26 10:57 51.87999 0.22728 329 ft 22 kts 43°
2026-04-26 10:57 51.88301 0.23183 335 ft 95 kts 43°
2026-04-26 10:58 51.88941 0.24146 364 ft 153 kts 44°
2026-04-26 10:58 51.89769 0.25354 932 ft 163 kts 46°
2026-04-26 10:58 51.90594 0.26596 1796 ft 161 kts 47°
2026-04-26 10:58 51.91479 0.27951 2183 ft 191 kts 46°
2026-04-26 10:59 51.92583 0.29428 2434 ft 220 kts 31°
2026-04-26 10:59 51.94117 0.30101 2675 ft 247 kts
2026-04-26 10:59 51.95807 0.29274 3185 ft 265 kts 326°
2026-04-26 10:59 51.96962 0.26942 3992 ft 272 kts 290°
2026-04-26 11:00 51.97375 0.23954 4907 ft 274 kts 278°
2026-04-26 11:00 51.97627 0.20882 5782 ft 275 kts 277°
2026-04-26 11:00 51.97869 0.17828 6778 ft 272 kts 276°
2026-04-26 11:00 51.98111 0.14782 7629 ft 273 kts 277°
2026-04-26 11:01 51.98399 0.11712 8418 ft 277 kts 278°
2026-04-26 11:01 51.98724 0.08605 9194 ft 282 kts 279°
2026-04-26 11:01 51.98980 0.05451 10027 ft 283 kts 268°
2026-04-26 11:01 51.98766 0.02264 10701 ft 289 kts 261°
2026-04-26 11:02 51.98465 -0.01090 10884 ft 313 kts 261°
2026-04-26 11:02 51.98170 -0.04670 11325 ft 326 kts 262°
2026-04-26 11:02 51.97883 -0.08326 12101 ft 329 kts 262°
2026-04-26 11:02 51.97596 -0.12054 12766 ft 335 kts 262°
2026-04-26 11:03 51.97307 -0.15814 13562 ft 338 kts 262°
2026-04-26 11:03 51.97015 -0.19623 14354 ft 341 kts 262°
2026-04-26 11:03 51.96720 -0.23459 15116 ft 344 kts 262°
2026-04-26 11:03 51.96422 -0.27321 15854 ft 348 kts 262°
2026-04-26 11:04 51.96117 -0.31241 16591 ft 351 kts 262°
2026-04-26 11:04 51.95809 -0.35195 17343 ft 355 kts 262°
2026-04-26 11:04 51.95498 -0.39173 18080 ft 358 kts 262°
2026-04-26 11:04 51.95181 -0.43199 18772 ft 362 kts 262°
2026-04-26 11:05 51.94860 -0.47263 19410 ft 365 kts 263°
2026-04-26 11:05 51.94936 -0.51383 20008 ft 370 kts 282°
2026-04-26 11:05 51.95922 -0.55241 20676 ft 375 kts 300°
2026-04-26 11:05 51.97603 -0.58502 21320 ft 381 kts 318°
2026-04-26 11:06 51.99813 -0.60928 21971 ft 386 kts 326°
2026-04-26 11:06 52.01375 -0.62432 22379 ft 388 kts 327°
2026-04-26 11:06 52.04487 -0.65359 23161 ft 393 kts 327°
2026-04-26 11:06 52.06852 -0.67613 23777 ft 395 kts 327°
2026-04-26 11:07 52.09215 -0.69908 24296 ft 397 kts 326°
2026-04-26 11:07 52.11588 -0.72238 24806 ft 399 kts 326°
2026-04-26 11:07 52.13964 -0.74582 25296 ft 401 kts 326°
2026-04-26 11:07 52.16358 -0.76947 25784 ft 404 kts 326°
2026-04-26 11:08 52.18769 -0.79331 26245 ft 406 kts 326°
2026-04-26 11:08 52.21186 -0.81722 26712 ft 408 kts 326°
2026-04-26 11:08 52.23622 -0.84134 27168 ft 410 kts 326°
2026-04-26 11:08 52.26099 -0.86590 27614 ft 413 kts 326°
2026-04-26 11:09 52.28530 -0.89004 28066 ft 415 kts 326°
2026-04-26 11:09 52.31029 -0.91489 28528 ft 416 kts 325°
2026-04-26 11:09 52.33515 -0.93964 28972 ft 418 kts 325°
2026-04-26 11:09 52.36004 -0.96446 29380 ft 421 kts 325°
2026-04-26 11:10 52.38512 -0.98951 29761 ft 423 kts 325°
2026-04-26 11:10 52.41030 -1.01468 30099 ft 427 kts 325°
2026-04-26 11:10 52.43575 -1.04016 30387 ft 430 kts 325°
2026-04-26 11:10 52.46131 -1.06577 30699 ft 432 kts 325°
2026-04-26 11:11 52.48697 -1.09151 31029 ft 433 kts 325°
2026-04-26 11:11 52.51266 -1.11733 31413 ft 432 kts 325°
2026-04-26 11:11 52.52967 -1.13444 31730 ft 431 kts 324°
2026-04-26 11:11 52.55515 -1.16010 32214 ft 428 kts 324°
2026-04-26 11:12 52.58044 -1.18560 32642 ft 427 kts 324°
2026-04-26 11:12 52.60571 -1.21112 33007 ft 426 kts 324°
2026-04-26 11:12 52.63100 -1.23670 33380 ft 426 kts 324°
2026-04-26 11:12 52.65625 -1.26225 33786 ft 425 kts 324°
2026-04-26 11:13 52.68139 -1.28773 34197 ft 423 kts 324°
2026-04-26 11:13 52.70644 -1.31315 34518 ft 423 kts 324°
2026-04-26 11:13 52.73146 -1.33861 34812 ft 423 kts 324°
2026-04-26 11:13 52.75657 -1.36419 35163 ft 423 kts 324°
2026-04-26 11:14 52.78157 -1.38969 35507 ft 422 kts 324°
2026-04-26 11:14 52.80647 -1.41514 35819 ft 421 kts 324°
2026-04-26 11:14 52.83141 -1.44066 36078 ft 422 kts 324°
2026-04-26 11:14 52.85636 -1.46623 36333 ft 422 kts 324°
2026-04-26 11:15 52.88132 -1.49184 36616 ft 421 kts 324°
2026-04-26 11:15 52.90620 -1.51741 36905 ft 421 kts 324°
2026-04-26 11:15 52.93111 -1.54304 37114 ft 422 kts 324°
2026-04-26 11:15 52.95610 -1.56879 37305 ft 424 kts 324°
2026-04-26 11:16 52.98115 -1.59464 37583 ft 423 kts 324°
2026-04-26 11:16 53.00612 -1.62043 37894 ft 422 kts 324°
2026-04-26 11:16 53.03102 -1.64617 38145 ft 422 kts 324°
2026-04-26 11:16 53.05597 -1.67202 38323 ft 423 kts 324°
2026-04-26 11:17 53.10627 -1.72430 38319 ft 428 kts 324°
2026-04-26 11:17 53.15661 -1.77673 38309 ft 423 kts 324°
2026-04-26 11:18 53.20610 -1.82881 38317 ft 418 kts 321°
2026-04-26 11:18 53.22802 -1.85996 38322 ft 412 kts 310°
2026-04-26 11:18 53.24653 -1.89629 38331 ft 410 kts 303°
2026-04-26 11:19 53.27389 -1.97902 38326 ft 406 kts 294°
2026-04-26 11:19 53.29851 -2.06396 38328 ft 407 kts 294°
2026-04-26 11:20 53.31948 -2.13529 38328 ft 408 kts 294°
2026-04-26 11:20 53.34884 -2.23449 38322 ft 410 kts 294°
2026-04-26 11:21 53.36985 -2.32297 38332 ft 409 kts 286°
2026-04-26 11:21 53.38665 -2.41436 38323 ft 411 kts 285°
2026-04-26 11:22 53.40354 -2.50590 38316 ft 412 kts 285°
2026-04-26 11:22 53.42074 -2.59753 38313 ft 413 kts 285°
2026-04-26 11:23 53.43802 -2.68940 38295 ft 413 kts 285°
2026-04-26 11:23 53.45520 -2.78121 38293 ft 412 kts 285°
2026-04-26 11:24 53.47218 -2.87232 38297 ft 411 kts 285°
2026-04-26 11:24 53.48916 -2.96399 38283 ft 410 kts 285°
2026-04-26 11:25 53.50596 -3.05517 38290 ft 409 kts 285°
2026-04-26 11:25 53.52269 -3.14643 38289 ft 408 kts 285°
2026-04-26 11:26 53.53930 -3.23745 38280 ft 407 kts 285°
2026-04-26 11:26 53.55555 -3.32693 38280 ft 406 kts 285°
2026-04-26 11:27 53.57197 -3.41774 38279 ft 405 kts 284°
2026-04-26 11:27 53.58829 -3.50853 38281 ft 405 kts 284°
2026-04-26 11:28 53.60453 -3.59929 38278 ft 405 kts 284°
2026-04-26 11:28 53.61784 -3.69098 38267 ft 402 kts 273°
2026-04-26 11:29 53.62134 -3.78552 38276 ft 402 kts 272°
2026-04-26 11:29 53.62493 -3.87963 38277 ft 403 kts 272°
2026-04-26 11:30 53.62810 -3.95780 38278 ft 403 kts 272°
2026-04-26 11:30 53.63250 -4.06817 38278 ft 404 kts 272°
2026-04-26 11:31 53.63616 -4.16285 38281 ft 405 kts 272°
2026-04-26 11:31 53.63976 -4.25763 38274 ft 406 kts 272°
2026-04-26 11:32 53.64330 -4.35266 38276 ft 407 kts 272°
2026-04-26 11:32 53.64676 -4.44789 38276 ft 407 kts 271°
2026-04-26 11:33 53.65015 -4.54334 38274 ft 408 kts 271°
2026-04-26 11:33 53.65346 -4.63883 38285 ft 408 kts 271°
2026-04-26 11:34 53.65671 -4.73436 38278 ft 408 kts 271°
2026-04-26 11:34 53.65989 -4.82990 38279 ft 408 kts 271°
2026-04-26 11:35 53.66145 -4.87775 38014 ft 412 kts 271°
2026-04-26 11:35 53.66302 -4.92597 37681 ft 409 kts 271°
2026-04-26 11:35 53.66456 -4.97361 37234 ft 404 kts 271°
2026-04-26 11:35 53.66556 -5.00470 37025 ft 400 kts 271°
2026-04-26 11:36 53.66754 -5.06701 36486 ft 395 kts 270°
2026-04-26 11:36 53.66898 -5.11282 36115 ft 390 kts 270°
2026-04-26 11:36 53.67037 -5.15838 35732 ft 386 kts 270°
2026-04-26 11:36 53.67168 -5.20291 35382 ft 382 kts 270°
2026-04-26 11:37 53.67299 -5.24808 35001 ft 379 kts 269°
2026-04-26 11:37 53.67426 -5.29228 34629 ft 376 kts 270°
2026-04-26 11:37 53.67554 -5.33611 34254 ft 372 kts 270°
2026-04-26 11:37 53.67673 -5.37956 33829 ft 369 kts 269°
2026-04-26 11:38 53.67788 -5.42260 33427 ft 366 kts 269°
2026-04-26 11:38 53.67905 -5.46530 33052 ft 363 kts 269°
2026-04-26 11:38 53.68029 -5.50708 32688 ft 360 kts 270°
2026-04-26 11:38 53.68249 -5.54954 32318 ft 358 kts 272°
2026-04-26 11:39 53.68509 -5.59059 31963 ft 355 kts 272°
2026-04-26 11:39 53.68786 -5.63236 31612 ft 353 kts 273°
2026-04-26 11:39 53.69056 -5.67331 31250 ft 350 kts 272°
2026-04-26 11:39 53.69319 -5.71395 30900 ft 348 kts 272°
2026-04-26 11:40 53.69577 -5.75472 30572 ft 352 kts 272°
2026-04-26 11:40 53.69834 -5.79616 30199 ft 357 kts 272°
2026-04-26 11:40 53.70089 -5.83772 29770 ft 355 kts 272°
2026-04-26 11:40 53.70340 -5.87899 29372 ft 352 kts 272°
2026-04-26 11:41 53.70589 -5.91999 28996 ft 349 kts 272°
2026-04-26 11:42 53.72222 -6.19787 26486 ft 335 kts 273°
2026-04-26 11:43 53.72445 -6.23676 26141 ft 336 kts 273°
2026-04-26 11:43 53.72669 -6.27607 25790 ft 337 kts 273°
2026-04-26 11:43 53.72892 -6.31549 25436 ft 336 kts 273°
2026-04-26 11:43 53.73114 -6.35477 25079 ft 334 kts 273°
2026-04-26 11:44 53.73333 -6.39375 24732 ft 333 kts 273°
2026-04-26 11:44 53.73550 -6.43260 24385 ft 332 kts 273°
2026-04-26 11:44 53.73765 -6.47155 24023 ft 333 kts 273°
2026-04-26 11:44 53.73979 -6.51042 23617 ft 333 kts 273°
2026-04-26 11:45 53.74192 -6.54926 23241 ft 331 kts 273°
2026-04-26 11:45 53.74402 -6.58782 22877 ft 329 kts 273°
2026-04-26 11:45 53.74610 -6.62612 22525 ft 326 kts 273°
2026-04-26 11:45 53.74815 -6.66422 22180 ft 324 kts 273°
2026-04-26 11:46 53.75016 -6.70197 21841 ft 322 kts 273°
2026-04-26 11:46 53.75215 -6.73935 21508 ft 320 kts 273°
2026-04-26 11:46 53.75413 -6.77672 21178 ft 318 kts 274°
2026-04-26 11:46 53.75607 -6.81380 20853 ft 316 kts 274°
2026-04-26 11:47 53.75800 -6.85071 20520 ft 315 kts 274°
2026-04-26 11:47 53.75990 -6.88741 20196 ft 313 kts 274°
2026-04-26 11:47 53.76179 -6.92404 19871 ft 312 kts 274°
2026-04-26 11:47 53.76366 -6.96052 19548 ft 311 kts 274°
2026-04-26 11:48 53.76551 -6.99682 19224 ft 310 kts 274°
2026-04-26 11:48 53.76673 -7.02084 19013 ft 310 kts 274°
2026-04-26 11:48 53.76856 -7.05710 18691 ft 309 kts 274°
2026-04-26 11:48 53.77037 -7.09321 18337 ft 309 kts 274°
2026-04-26 11:49 53.77217 -7.12931 17985 ft 307 kts 274°
2026-04-26 11:49 53.77396 -7.16505 17663 ft 306 kts 274°
2026-04-26 11:49 53.77572 -7.20081 17320 ft 304 kts 274°
2026-04-26 11:49 53.77746 -7.23638 17006 ft 303 kts 274°
2026-04-26 11:50 53.77954 -7.27178 16687 ft 302 kts 280°
2026-04-26 11:50 53.78673 -7.30490 16366 ft 302 kts 298°
2026-04-26 11:50 53.79916 -7.33355 16037 ft 303 kts 308°
2026-04-26 11:50 53.81300 -7.36032 15714 ft 302 kts 310°
2026-04-26 11:51 53.82690 -7.38664 15384 ft 301 kts 310°
2026-04-26 11:51 53.84076 -7.41298 15075 ft 300 kts 309°
2026-04-26 11:51 53.85442 -7.43914 14783 ft 298 kts 309°
2026-04-26 11:51 53.86810 -7.46555 14472 ft 298 kts 309°
2026-04-26 11:52 53.88162 -7.49176 14175 ft 296 kts 309°
2026-04-26 11:52 53.89514 -7.51809 13848 ft 295 kts 309°
2026-04-26 11:52 53.90852 -7.54421 13516 ft 294 kts 309°
2026-04-26 11:52 53.92188 -7.57035 13205 ft 293 kts 309°
2026-04-26 11:53 53.93519 -7.59640 12901 ft 291 kts 309°
2026-04-26 11:53 53.94840 -7.62231 12597 ft 289 kts 309°
2026-04-26 11:53 53.96152 -7.64806 12310 ft 288 kts 308°
2026-04-26 11:54 53.98716 -7.69966 11719 ft 283 kts 300°
2026-04-26 11:54 53.99391 -7.73044 11431 ft 277 kts 279°
2026-04-26 11:54 53.99708 -7.76258 11161 ft 275 kts 277°
2026-04-26 11:54 54.00010 -7.79464 10862 ft 274 kts 277°
2026-04-26 11:55 54.00318 -7.82671 10587 ft 273 kts 277°
2026-04-26 11:55 54.00629 -7.85840 10379 ft 269 kts 277°
2026-04-26 11:55 54.00937 -7.88943 10208 ft 264 kts 277°
2026-04-26 11:55 54.01241 -7.92022 9905 ft 264 kts 276°
2026-04-26 11:56 54.01230 -7.95100 9624 ft 259 kts 258°
2026-04-26 11:56 54.00864 -7.98085 9360 ft 257 kts 257°
2026-04-26 11:56 54.00498 -8.01050 9083 ft 256 kts 257°
2026-04-26 11:56 54.00140 -8.04005 8809 ft 255 kts 257°
2026-04-26 11:57 53.99787 -8.06963 8534 ft 254 kts 257°
2026-04-26 11:57 53.99441 -8.09898 8266 ft 253 kts 258°
2026-04-26 11:57 53.99098 -8.12824 7996 ft 252 kts 258°
2026-04-26 11:57 53.98750 -8.15785 7532 ft 257 kts 258°
2026-04-26 11:58 53.98407 -8.18712 7224 ft 249 kts 258°
2026-04-26 11:58 53.98077 -8.21528 6928 ft 238 kts 258°
2026-04-26 11:58 53.97763 -8.24233 6633 ft 229 kts 258°
2026-04-26 11:58 53.97463 -8.26829 6354 ft 219 kts 258°
2026-04-26 11:59 53.97176 -8.29312 6117 ft 210 kts 258°
2026-04-26 11:59 53.96894 -8.31698 5923 ft 201 kts 258°
2026-04-26 11:59 53.96624 -8.33963 5764 ft 190 kts 258°
2026-04-26 11:59 53.96368 -8.36112 5587 ft 182 kts 258°
2026-04-26 12:00 53.96130 -8.38106 5607 ft 171 kts 258°
2026-04-26 12:00 53.95890 -8.40132 5405 ft 176 kts 258°
2026-04-26 12:00 53.95648 -8.42172 5160 ft 175 kts 258°
2026-04-26 12:00 53.95410 -8.44179 4941 ft 171 kts 259°
2026-04-26 12:01 53.95178 -8.46140 4698 ft 168 kts 259°
2026-04-26 12:01 53.94951 -8.48065 4466 ft 165 kts 259°
2026-04-26 12:01 53.94727 -8.49973 4246 ft 165 kts 259°
2026-04-26 12:01 53.94501 -8.51896 4026 ft 168 kts 259°
2026-04-26 12:02 53.94274 -8.53825 3796 ft 166 kts 259°
2026-04-26 12:02 53.94050 -8.55737 3560 ft 163 kts 259°
2026-04-26 12:02 53.93830 -8.57617 3340 ft 162 kts 259°
2026-04-26 12:02 53.93610 -8.59502 3137 ft 163 kts 259°
2026-04-26 12:03 53.93386 -8.61415 2900 ft 165 kts 259°
2026-04-26 12:03 53.93163 -8.63333 2669 ft 166 kts 259°
2026-04-26 12:03 53.92941 -8.65235 2445 ft 163 kts 259°
2026-04-26 12:03 53.92729 -8.67058 2260 ft 151 kts 260°
2026-04-26 12:04 53.92535 -8.68727 2065 ft 136 kts 261°
2026-04-26 12:04 53.92353 -8.70306 1858 ft 136 kts 261°
2026-04-26 12:04 53.92169 -8.71891 1646 ft 136 kts 261°
2026-04-26 12:04 53.91990 -8.73446 1471 ft 133 kts 261°
2026-04-26 12:05 53.91813 -8.74976 1291 ft 132 kts 260°
2026-04-26 12:05 53.91637 -8.76503 1111 ft 133 kts 260°
2026-04-26 12:05 53.91466 -8.78055 946 ft 135 kts 262°
2026-04-26 12:05 53.91292 -8.79599 748 ft 131 kts 261°
2026-04-26 12:06 53.91116 -8.81119 643 ft 123 kts 258°
2026-04-26 12:06 53.90989 -8.82190 642 ft 62 kts 258°
2026-04-26 12:06 53.90955 -8.82559 642 ft 2 kts 278°
2026-04-26 12:06 53.90950 -8.82574 642 ft 1 kts 195°
2026-04-26 12:07 53.90948 -8.82546 642 ft 5 kts 83°
2026-04-26 12:07 53.90963 -8.82407 643 ft 19 kts 79°
2026-04-26 12:07 53.91000 -8.82096 642 ft 34 kts 79°
2026-04-26 12:07 53.91056 -8.81626 640 ft 45 kts 78°
2026-04-26 12:08 53.91109 -8.81168 642 ft 30 kts 78°
2026-04-26 12:08 53.91143 -8.80898 643 ft 12 kts 75°
2026-04-26 12:08 53.91209 -8.80878 644 ft 11 kts 348°
2026-04-26 12:08 53.91288 -8.80904 641 ft 12 kts 349°
2026-04-26 12:09 53.91357 -8.80927 641 ft 7 kts 347°
2026-04-26 12:09 53.91399 -8.80943 643 ft 5 kts 339°
2026-04-26 12:09 53.91407 -8.80986 641 ft 4 kts 258°
2026-04-26 12:09 53.91404 -8.81014 641 ft 2 kts 259°
2026-04-26 12:10 53.91403 -8.81021 641 ft 0 kts 259°